Weather History for Maun, Botswana

Change the Weather History Date:

Saturday, March 16, 2013

  Actual Average Record
Temperature  
Mean Temperature 80 °F -  
Max Temperature 94 °F 86 °F 96 °F (2007)
Min Temperature 66 °F 63 °F 64 °F (2009)
Cooling Degree Days 15    
Growing Degree Days 30 (Base 50)    
Moisture  
Dew Point 58 °F    
Average Humidity 45    
Maximum Humidity 78    
Minimum Humidity 26    
Precipitation  
Precipitation 0.00 in - - ()
Sea Level Pressure  
Sea Level Pressure 30.01 in    
Wind  
Wind Speed 5 mph ()    
Max Wind Speed 12 mph    
Max Gust Speed -    
Visibility 6.2 miles    
Events      
Averages and records for this station are not official NWS values.
T = Trace of Precipitation, MM = Missing Value Source: Averaged Metar Reports

Daily Weather History Graph

Daily Weather History Graph

Search for Another Location

Airport:

Trip Planner

Search our weather history database for the weather conditions in past years. The results will help you decide how hot, cold, wet, or windy it might be!

Date:

Astronomy

Mar. 16, 2013 Rise Set
Actual Time 6:28 AM CAT 6:40 PM CAT
Civil Twilight 6:06 AM CAT 7:02 PM CAT
Nautical Twilight 5:41 AM CAT 7:28 PM CAT
Astronomical Twilight 5:15 AM CAT 7:53 PM CAT
Moon 10:22 AM CAT (3/16) 9:50 PM CAT (3/16)
Length of Visible Light 12h 55m
Length of Day
12h 11m
Waxing Crescent, 21% of the Moon is Illuminated
Mar 16
Waxing Crescent
Mar 19
First Quarter
Mar 27
Full
Apr 3
Last Quarter
Apr 10
New

Hourly Weather History & Observations

Time (CAT) Temp. Heat Index Dew Point Humidity Pressure Visibility Wind Dir Wind Speed Gust Speed Precip Events Conditions
12:00 AM 75.2 °F - 53.6 °F 47% 30.04 in - ENE 4.6 mph - N/A   Clear
2:00 AM 72 °F - 53 °F 40%  in 6 mi East 5.8 mph - -  
2:00 AM 71.6 °F - 53.6 °F 53% 30.01 in - East 5.8 mph - N/A   Clear
5:00 AM 68.0 °F - 57.2 °F 68% 30.04 in - NE 5.8 mph - N/A   Clear
6:00 AM 68.0 °F - 57.2 °F 68% 30.04 in - NE 5.8 mph - N/A   Clear
7:00 AM 66.2 °F - 59.0 °F 78% 30.04 in - NE 5.8 mph - N/A   Clear
9:00 AM 78.8 °F - 64.4 °F 61% 30.09 in - NNE 11.5 mph - N/A   Clear
10:00 AM 82.4 °F 83.9 °F 64.4 °F 54% 30.09 in - North 9.2 mph - N/A   Clear
11:00 AM 86.0 °F 86.6 °F 62.6 °F 45% 30.06 in - NNE 8.1 mph - N/A   Clear
12:00 PM 87.8 °F 87.6 °F 60.8 °F 40% 30.06 in - North 8.1 mph - N/A   Clear
1:00 PM 91.4 °F 91.4 °F 60.8 °F 36% 30.04 in - North 11.5 mph - N/A   Clear
2:00 PM 93.2 °F 91.3 °F 55.4 °F 28% 30.01 in 6.2 mi NE 8.1 mph - N/A   Partly Cloudy
3:00 PM 95.0 °F 93.7 °F 57.2 °F 28% 29.98 in 6.2 mi Variable 3.5 mph - N/A   Scattered Clouds
4:00 PM 95.0 °F 93.0 °F 55.4 °F 26% 29.95 in 6.2 mi SE 3.5 mph - N/A   Scattered Clouds
5:00 PM 93.2 °F 91.3 °F 55.4 °F 28% 29.95 in 6.2 mi North 8.1 mph - N/A   Partly Cloudy
6:00 PM 91.4 °F 89.9 °F 57.2 °F 31% 29.95 in 6.2 mi North 5.8 mph - N/A   Partly Cloudy
7:00 PM 89.6 °F 88.1 °F 57.2 °F 33% 29.95 in 6.2 mi NW 3.5 mph - N/A   Partly Cloudy
8:00 PM 85 °F - 60 °F 33%  in 6 mi North 2.3 mph - -   Partly Cloudy
8:00 PM 84.2 °F 83.5 °F 57.2 °F 40% 29.95 in 6.2 mi Calm Calm - N/A   Partly Cloudy
9:00 PM 80.6 °F 81.5 °F 60.8 °F 51% 29.98 in 6.2 mi NNE 3.5 mph - N/A   Partly Cloudy
10:00 PM 78.8 °F - 57.2 °F 47% 30.01 in - Calm Calm - N/A   Clear
11:00 PM 78.8 °F - 60.8 °F 54% 30.01 in - ENE 3.5 mph - N/A   Clear